Kalispell, MT

7:47 PM MDT on May 21, 2018 (GMT -0600)
Glacier Park International

Weather History for KGPI - September, 2011

Change the Weather History Date:

Tuesday, September 20, 2011

  Actual Average Record
Temperature  
Mean Temperature 49 °F 52 °F  
Max Temperature 65 °F 68 °F 85 °F (1922)
Min Temperature 33 °F 37 °F 9 °F (2017)
Degree Days  
Heating Degree Days 16 13  
Month to date heating degree days 140 182  
Since 1 July heating degree days 286 352  
Moisture  
Dew Point 38 °F    
Average Humidity 70    
Maximum Humidity 100    
Minimum Humidity 39    
Precipitation  
Precipitation 0.00 in 0.05 in 0.50 in (1955)
Month to date precipitation 0.47 0.97  
Year to date precipitation 13.15 12.58  
Snow  
Snow 0.00 in - - ()
Month to date snowfall 0.0  
Year to date snowfall 27.0  
Since 1 July snowfall 0.0  
Snow Depth 0.00 in    
Sea Level Pressure  
Sea Level Pressure 30.24 in    
Wind  
Wind Speed 4 mph (North)    
Max Wind Speed 10 mph    
Max Gust Speed 14 mph    
Visibility 7 miles    
Events      
T = Trace of Precipitation, MM = Missing Value Source: NWS Daily Summary

Daily Weather History Graph

Daily Weather History Graph

Search for Another Location

Airport or City:

Astronomy

Sep. 20, 2011 Rise Set
Actual Time 7:20 AM MDT 7:39 PM MDT
Civil Twilight 6:49 AM MDT 8:10 PM MDT
Nautical Twilight 6:12 AM MDT 8:47 PM MDT
Astronomical Twilight 5:34 AM MDT 9:25 PM MDT
Moon No Moon Rise 3:34 PM MDT (9/20)
Length of Visible Light 13h 21m
Length of Day
12h 18m
Waning Gibbous, 48% of the Moon is Illuminated
Sep 20
Waning Gibbous
Sep 27
New
Oct 3
First Quarter
Oct 11
Full
Oct 19
Last Quarter

Hourly Weather History & Observations

Time (MDT) Temp. Windchill Dew Point Humidity Pressure Visibility Wind Dir Wind Speed Gust Speed Precip Events Conditions
12:26 AM 35.6 °F 32.8 °F 35.6 °F 100% 30.21 in 2.0 mi SW 3.5 mph - N/A   Partly Cloudy
12:28 AM 35.6 °F - 35.6 °F 100% 30.21 in 1.2 mi Calm Calm - N/A   Partly Cloudy
12:32 AM 35.6 °F - 35.6 °F 100% 30.21 in 0.8 mi Calm Calm - N/A   Mist
12:40 AM 35.6 °F - 35.6 °F 100% 30.21 in 1.2 mi Calm Calm - N/A   Partly Cloudy
12:48 AM 37.4 °F - 37.4 °F 100% 30.21 in 2.0 mi Calm Calm - N/A   Scattered Clouds
12:55 AM 37.0 °F - 37.0 °F 100% 30.25 in 10.0 mi Calm Calm - N/A   Scattered Clouds
1:03 AM 35.6 °F - 35.6 °F 100% 30.21 in 1.8 mi Calm Calm - N/A   Mostly Cloudy
1:06 AM 35.6 °F - 35.6 °F 100% 30.21 in 0.8 mi Calm Calm - N/A   Mist
1:26 AM 35.6 °F 32.8 °F 35.6 °F 100% 30.22 in 1.0 mi NW 3.5 mph - N/A   Mist
1:28 AM 35.6 °F 31.7 °F 35.6 °F 100% 30.22 in 1.5 mi WNW 4.6 mph - N/A   Scattered Clouds
1:41 AM 35.6 °F - 35.6 °F 100% 30.22 in 3.0 mi Calm Calm - N/A   Partly Cloudy
1:55 AM 36.0 °F - 36.0 °F 100% 30.26 in 9.0 mi Calm Calm - N/A   Clear
2:55 AM 34.0 °F 31.0 °F 34.0 °F 100% 30.27 in 8.0 mi WNW 3.5 mph - N/A   Clear
3:55 AM 36.0 °F 31.1 °F 35.1 °F 97% 30.27 in 9.0 mi West 5.8 mph - N/A   Clear
4:55 AM 35.1 °F 31.0 °F 35.1 °F 100% 30.27 in 9.0 mi NW 4.6 mph - N/A   Clear
5:55 AM 39.9 °F 36.7 °F 39.0 °F 97% 30.27 in 10.0 mi NNW 4.6 mph - N/A   Clear
6:55 AM 41.0 °F 35.8 °F 39.0 °F 93% 30.28 in 10.0 mi North 8.1 mph - N/A   Clear
7:55 AM 34.0 °F - 33.1 °F 96% 30.31 in 6.0 mi Calm Calm - N/A   Clear
8:55 AM 42.1 °F 39.2 °F 39.9 °F 92% 30.32 in 10.0 mi SE 4.6 mph - N/A   Clear
9:41 AM 42.8 °F 40.1 °F 39.2 °F 87% 30.29 in 10.0 mi NE 4.6 mph - N/A   Mostly Cloudy
9:49 AM 42.8 °F 40.1 °F 39.2 °F 87% 30.29 in 1.0 mi NE 4.6 mph - N/A   Mostly Cloudy
9:55 AM 42.8 °F 39.3 °F 41.0 °F 93% 30.29 in 1.0 mi ENE 5.8 mph - N/A   Mostly Cloudy
10:15 AM 42.8 °F - 42.8 °F 100% 30.29 in 4.0 mi Calm Calm - N/A   Scattered Clouds
10:55 AM 46.9 °F - 43.0 °F 86% 30.33 in 10.0 mi SSE 4.6 mph - N/A   Partly Cloudy
11:55 AM 52.0 °F - 43.0 °F 71% 30.32 in 10.0 mi ENE 3.5 mph - N/A   Clear
12:55 PM 55.9 °F - 44.1 °F 64% 30.29 in 10.0 mi Calm Calm - N/A   Clear
1:55 PM 60.1 °F - 44.1 °F 55% 30.27 in 10.0 mi NE 3.5 mph - N/A   Clear
2:55 PM 61.0 °F - 42.1 °F 50% 30.25 in 10.0 mi Calm Calm - N/A   Clear
3:55 PM 64.0 °F - 41.0 °F 43% 30.23 in 10.0 mi SSE 6.9 mph - N/A   Clear
4:55 PM 64.4 °F - 39.2 °F 40% 30.19 in 10.0 mi SSE 9.2 mph - N/A   Clear
5:55 PM 64.0 °F - 39.0 °F 40% 30.19 in 10.0 mi South 6.9 mph - N/A   Clear
6:55 PM 62.6 °F - 37.4 °F 39% 30.16 in 10.0 mi South 4.6 mph - N/A   Clear
7:55 PM 54.0 °F - 41.0 °F 62% 30.19 in 10.0 mi Calm Calm - N/A   Clear
8:55 PM 46.4 °F - 39.2 °F 76% 30.16 in 10.0 mi Calm Calm - N/A   Clear
9:55 PM 41.0 °F - 37.4 °F 87% 30.16 in 10.0 mi Calm Calm - N/A   Clear
10:55 PM 39.9 °F 37.8 °F 37.0 °F 89% 30.20 in 10.0 mi WNW 3.5 mph - N/A   Clear
11:55 PM 39.0 °F - 36.0 °F 89% 30.20 in 10.0 mi Calm Calm - N/A   Clear